• In Uzbekistan
  • List of Countries
  • For 7 days
  • Water Temperature
  • Satellite Maps
  • Weather Map
  • Weather Widgets
  • user-avatar
    Login

    Hourly Weather Santa Fe

    Today, 20 October, Friday

    Time Temperature Precipitation Wind Pressure Humidity
    00:00 +13°C° 0 mm 3 mps 759 mmHg 72%
    01:00 +13°C° 0 mm 3 mps 758 mmHg 75%
    02:00 +12°C° 0 mm 3 mps 758 mmHg 78%
    03:00 +12°C° 0 mm 3 mps 758 mmHg 82%
    04:00 +12°C° 0 mm 3 mps 758 mmHg 86%
    05:00 +12°C° 0 mm 3 mps 758 mmHg 90%
    06:00 +14°C° 0 mm 4 mps 758 mmHg 85%
    07:00 +17°C° 0 mm 4 mps 758 mmHg 79%
    08:00 +19°C° 0 mm 5 mps 757 mmHg 73%
    09:00 +21°C° 0 mm 5 mps 757 mmHg 67%
    10:00 +23°C° 0 mm 5 mps 756 mmHg 61%
    11:00 +27°C° 0 mm 5 mps 756 mmHg 55%
    12:00 +28°C° 0 mm 4 mps 755 mmHg 50%
    13:00 +29°C° 0 mm 4 mps 754 mmHg 46%
    14:00 +30°C° 0 mm 3 mps 753 mmHg 41%
    15:00 +30°C° 0 mm 3 mps 753 mmHg 44%
    16:00 +29°C° 0 mm 2 mps 753 mmHg 47%
    17:00 +29°C° 0 mm 2 mps 752 mmHg 50%
    18:00 +27°C° 0 mm 2 mps 753 mmHg 56%
    19:00 +25°C° 0 mm 2 mps 753 mmHg 62%
    20:00 +24°C° 0 mm 2 mps 754 mmHg 67%
    21:00 +23°C° 0 mm 2 mps 754 mmHg 73%
    22:00 +21°C° 0 mm 2 mps 754 mmHg 78%
    23:00 +20°C° 0 mm 2 mps 755 mmHg 84%

    Tomorrow, 21 October, Saturday

    Time Temperature Precipitation Wind Pressure Humidity
    00:00 +20°C° 0 mm 2 mps 755 mmHg 86%
    01:00 +20°C° 0 mm 3 mps 755 mmHg 88%
    02:00 +19°C° 0 mm 3 mps 755 mmHg 89%
    03:00 +19°C° 0 mm 3 mps 756 mmHg 89%
    04:00 +19°C° 0 mm 4 mps 756 mmHg 89%
    05:00 +19°C° 0 mm 4 mps 757 mmHg 88%
    06:00 +20°C° 0 mm 5 mps 758 mmHg 82%
    07:00 +21°C° 0 mm 6 mps 759 mmHg 75%
    08:00 +21°C° 0 mm 6 mps 760 mmHg 69%
    09:00 +23°C° 0 mm 6 mps 761 mmHg 63%
    10:00 +24°C° 0 mm 6 mps 761 mmHg 57%
    11:00 +26°C° 0 mm 6 mps 762 mmHg 51%
    12:00 +26°C° 0 mm 6 mps 762 mmHg 46%
    13:00 +26°C° 0 mm 6 mps 762 mmHg 42%
    14:00 +27°C° 0 mm 6 mps 762 mmHg 37%
    15:00 +26°C° 0 mm 6 mps 762 mmHg 38%
    16:00 +25°C° 0 mm 5 mps 762 mmHg 38%
    17:00 +23°C° 0 mm 5 mps 762 mmHg 39%
    18:00 +21°C° 0 mm 5 mps 763 mmHg 40%
    19:00 +19°C° 0 mm 5 mps 764 mmHg 41%
    20:00 +16°C° 0 mm 5 mps 765 mmHg 42%
    21:00 +15°C° 0 mm 4 mps 765 mmHg 45%
    22:00 +14°C° 0 mm 4 mps 766 mmHg 48%
    23:00 +13°C° 0 mm 3 mps 766 mmHg 51%

    Day after tomorrow, 22 October, Sunday

    Time Temperature Precipitation Wind Pressure Humidity
    00:00 +13°C° 0 mm 3 mps 766 mmHg 54%
    01:00 +12°C° 0 mm 3 mps 766 mmHg 56%
    02:00 +11°C° 0 mm 3 mps 766 mmHg 59%
    03:00 +12°C° 0 mm 2 mps 767 mmHg 62%
    04:00 +10°C° 0 mm 2 mps 767 mmHg 65%
    05:00 +10°C° 0 mm 2 mps 767 mmHg 69%
    06:00 +13°C° 0 mm 2 mps 768 mmHg 61%
    07:00 +13°C° 0 mm 3 mps 768 mmHg 54%
    08:00 +16°C° 0 mm 3 mps 769 mmHg 47%
    09:00 +18°C° 0 mm 3 mps 768 mmHg 41%
    10:00 +19°C° 0 mm 3 mps 768 mmHg 35%
    11:00 +21°C° 0 mm 3 mps 768 mmHg 29%
    12:00 +23°C° 0 mm 2 mps 767 mmHg 28%
    13:00 +23°C° 0 mm 2 mps 766 mmHg 27%
    14:00 +24°C° 0 mm 2 mps 765 mmHg 25%
    15:00 +24°C° 0 mm 2 mps 764 mmHg 29%
    16:00 +23°C° 0 mm 2 mps 764 mmHg 32%
    17:00 +23°C° 0 mm 2 mps 763 mmHg 35%
    18:00 +20°C° 0 mm 3 mps 763 mmHg 40%
    19:00 +17°C° 0 mm 3 mps 764 mmHg 45%
    20:00 +14°C° 0 mm 3 mps 764 mmHg 50%
    21:00 +13°C° 0 mm 3 mps 764 mmHg 54%
    22:00 +13°C° 0 mm 3 mps 764 mmHg 58%
    23:00 +12°C° 0 mm 3 mps 764 mmHg 61%

    23 October, Monday

    Time Temperature Precipitation Wind Pressure Humidity
    00:00 +12°C° 0 mm 3 mps 764 mmHg 64%
    01:00 +11°C° 0 mm 3 mps 763 mmHg 66%
    02:00 +11°C° 0 mm 3 mps 763 mmHg 69%
    03:00 +11°C° 0 mm 3 mps 763 mmHg 70%
    04:00 +10°C° 0 mm 3 mps 763 mmHg 70%
    05:00 +10°C° 0 mm 3 mps 763 mmHg 71%
    06:00 +12°C° 0 mm 4 mps 763 mmHg 66%
    07:00 +14°C° 0 mm 5 mps 764 mmHg 60%
    08:00 +16°C° 0 mm 6 mps 764 mmHg 54%
    09:00 +17°C° 0 mm 5 mps 763 mmHg 49%
    10:00 +20°C° 0 mm 5 mps 763 mmHg 44%
    11:00 +22°C° 0 mm 5 mps 763 mmHg 38%
    12:00 +23°C° 0 mm 4 mps 762 mmHg 36%
    13:00 +25°C° 0 mm 4 mps 761 mmHg 34%
    14:00 +26°C° 0 mm 4 mps 760 mmHg 31%
    15:00 +26°C° 0 mm 4 mps 760 mmHg 35%
    16:00 +25°C° 0 mm 4 mps 759 mmHg 38%
    17:00 +23°C° 0 mm 4 mps 759 mmHg 42%
    18:00 +21°C° 0 mm 4 mps 759 mmHg 49%
    19:00 +19°C° 0 mm 4 mps 759 mmHg 56%
    20:00 +17°C° 0 mm 4 mps 760 mmHg 63%
    21:00 +17°C° 0 mm 3 mps 760 mmHg 67%
    22:00 +16°C° 0 mm 3 mps 760 mmHg 71%
    23:00 +14°C° 0 mm 3 mps 760 mmHg 75%

    24 October, Tuesday

    Time Temperature Precipitation Wind Pressure Humidity
    00:00 +14°C° 0 mm 3 mps 760 mmHg 78%
    01:00 +13°C° 0 mm 3 mps 760 mmHg 80%
    02:00 +13°C° 0 mm 3 mps 759 mmHg 83%
    03:00 +12°C° 0 mm 3 mps 760 mmHg 85%
    04:00 +12°C° 0 mm 3 mps 760 mmHg 87%
    05:00 +11°C° 0 mm 3 mps 760 mmHg 88%
    06:00 +13°C° 0 mm 3 mps 760 mmHg 79%
    07:00 +16°C° 0 mm 3 mps 761 mmHg 70%
    08:00 +19°C° 0 mm 3 mps 761 mmHg 61%
    09:00 +21°C° 0 mm 3 mps 761 mmHg 53%
    10:00 +24°C° 0 mm 3 mps 760 mmHg 46%
    11:00 +27°C° 0 mm 3 mps 760 mmHg 38%
    12:00 +28°C° 0 mm 3 mps 759 mmHg 35%
    13:00 +29°C° 0 mm 3 mps 759 mmHg 32%
    14:00 +30°C° 0 mm 3 mps 758 mmHg 29%
    15:00 +29°C° 0 mm 3 mps 758 mmHg 33%
    16:00 +28°C° 0 mm 3 mps 758 mmHg 37%
    17:00 +28°C° 0 mm 3 mps 757 mmHg 41%
    18:00 +26°C° 0 mm 3 mps 758 mmHg 47%
    19:00 +22°C° 0 mm 3 mps 758 mmHg 54%
    20:00 +20°C° 0 mm 3 mps 758 mmHg 61%
    21:00 +19°C° 0 mm 3 mps 758 mmHg 65%
    22:00 +18°C° 0 mm 3 mps 758 mmHg 69%
    23:00 +18°C° 0 mm 2 mps 759 mmHg 73%

    25 October, Wednesday

    Time Temperature Precipitation Wind Pressure Humidity
    00:00 +17°C° 0 mm 2 mps 758 mmHg 75%
    01:00 +17°C° 0 mm 2 mps 758 mmHg 78%
    02:00 +16°C° 0 mm 2 mps 758 mmHg 80%
    03:00 +16°C° 0 mm 2 mps 758 mmHg 83%
    04:00 +16°C° 0 mm 2 mps 758 mmHg 85%
    05:00 +16°C° 0 mm 2 mps 758 mmHg 88%
    06:00 +18°C° 0 mm 2 mps 758 mmHg 81%
    07:00 +20°C° 0 mm 3 mps 758 mmHg 75%
    08:00 +22°C° 0 mm 3 mps 759 mmHg 69%
    09:00 +25°C° 0 mm 3 mps 758 mmHg 61%
    10:00 +28°C° 0 mm 3 mps 758 mmHg 52%
    11:00 +30°C° 0 mm 3 mps 758 mmHg 44%
    12:00 +31°C° 0 mm 3 mps 757 mmHg 41%
    13:00 +33°C° 0 mm 3 mps 756 mmHg 38%
    14:00 +33°C° 0 mm 3 mps 756 mmHg 36%
    15:00 +33°C° 0 mm 3 mps 755 mmHg 40%
    16:00 +31°C° 0 mm 3 mps 755 mmHg 44%
    17:00 +30°C° 0 mm 4 mps 755 mmHg 47%
    18:00 +28°C° 0 mm 4 mps 755 mmHg 55%
    19:00 +26°C° 0 mm 4 mps 755 mmHg 63%
    20:00 +23°C° 0 mm 4 mps 755 mmHg 71%
    21:00 +23°C° 0 mm 4 mps 755 mmHg 75%
    22:00 +22°C° 0 mm 3 mps 755 mmHg 79%
    23:00 +21°C° 0 mm 3 mps 755 mmHg 83%
    Show more